Private Wetterstation Wechselburg
Wetterdaten: Mittwoch, 18.01.2012
Datum Zeit Temp. +2m Bodentemp. Temp.+5cm Temp. Wind Windchill X Diff Temp. Feuchte +2m Feuchte +5cm Sonnenschein Luftdruck Regen Wind Richtung Richtung Sonnenschein UV Taupunkt Windchill Windben
18.01.2012 00:00 -0,7 C 7,5 C -0,9 C -1,4 C -2,7 C 0,0 C 84 % 91 % 0 % 1031,4 hPa 0,0 l/m 0,0 km/h (0 Bft) O 90 0 min 0,0 UV-I -3,1 C -2,7 C 0,0 km/h (0 Bft)
18.01.2012 00:08 -0,9 C 7,5 C -1,0 C -1,5 C -2,8 C 0,0 C 84 % 91 % 0 % 1031,4 hPa 0,0 l/m 0,0 km/h (0 Bft) N 0 0 min 0,0 UV-I -3,3 C -2,8 C 0,0 km/h (0 Bft)
18.01.2012 00:20 -1,2 C 7,5 C -1,3 C -1,8 C -3,0 C 0,0 C 85 % 91 % 0 % 1031,4 hPa 0,0 l/m 0,0 km/h (0 Bft) O-SO 112 0 min 0,0 UV-I -3,4 C -3,0 C 0,0 km/h (0 Bft)
18.01.2012 00:25 -1,3 C 7,5 C -1,3 C -1,9 C -3,2 C 0,0 C 85 % 91 % 0 % 1031,4 hPa 0,0 l/m 0,0 km/h (0 Bft) O-SO 112 0 min 0,0 UV-I -3,5 C -3,2 C 0,0 km/h (0 Bft)
18.01.2012 00:30 -1,3 C 7,5 C -1,4 C -2,0 C -3,3 C 0,0 C 86 % 92 % 0 % 1031,4 hPa 0,0 l/m 0,0 km/h (0 Bft) O-SO 112 0 min 0,0 UV-I -3,3 C -3,3 C 0,0 km/h (0 Bft)
18.01.2012 00:35 -1,3 C 7,5 C -1,3 C -2,0 C -3,3 C 0,0 C 86 % 92 % 0 % 1031,4 hPa 0,0 l/m 0,0 km/h (0 Bft) O 90 0 min 0,0 UV-I -3,3 C -3,3 C 0,0 km/h (0 Bft)
18.01.2012 00:40 -1,4 C 7,5 C -1,5 C -2,0 C -3,3 C 0,0 C 86 % 92 % 0 % 1031,4 hPa 0,0 l/m 0,0 km/h (0 Bft) O 90 0 min 0,0 UV-I -3,4 C -3,3 C 0,0 km/h (0 Bft)
18.01.2012 00:45 -1,5 C 7,5 C -1,6 C -2,2 C -3,5 C 0,0 C 86 % 91 % 0 % 1031,4 hPa 0,0 l/m 0,0 km/h (0 Bft) O 90 0 min 0,0 UV-I -3,5 C -3,5 C 0,0 km/h (0 Bft)
18.01.2012 00:50 -1,5 C 7,5 C -1,6 C -2,2 C -3,5 C 0,0 C 86 % 91 % 0 % 1031,4 hPa 0,0 l/m 0,0 km/h (0 Bft) O 90 0 min 0,0 UV-I -3,5 C -3,5 C 0,0 km/h (0 Bft)
18.01.2012 00:55 -1,6 C 7,5 C -1,7 C -2,2 C -3,5 C 0,0 C 86 % 91 % 0 % 1031,4 hPa 0,0 l/m 0,0 km/h (0 Bft) O 90 0 min 0,0 UV-I -3,6 C -3,5 C 0,0 km/h (0 Bft)
18.01.2012 01:00 -1,5 C 7,5 C -1,7 C -2,2 C -3,5 C 0,0 C 86 % 91 % 0 % 1031,4 hPa 0,0 l/m 0,0 km/h (0 Bft) O 90 0 min 0,0 UV-I -3,5 C -3,5 C 0,0 km/h (0 Bft)
18.01.2012 01:10 -1,7 C 7,5 C -1,7 C -2,3 C -3,5 C 0,0 C 86 % 91 % 0 % 1031,4 hPa 0,0 l/m 0,0 km/h (0 Bft) N 0 0 min 0,0 UV-I -3,7 C -3,5 C 0,0 km/h (0 Bft)
18.01.2012 01:20 -1,7 C 7,5 C -1,8 C -2,4 C -3,7 C 0,0 C 86 % 91 % 0 % 1031,4 hPa 0,0 l/m 0,0 km/h (0 Bft) O 90 0 min 0,0 UV-I -3,7 C -3,7 C 0,0 km/h (0 Bft)
18.01.2012 01:25 -1,9 C 7,5 C -1,7 C -2,5 C -3,8 C 0,0 C 86 % 91 % 0 % 1031,4 hPa 0,0 l/m 0,0 km/h (0 Bft) O 90 0 min 0,0 UV-I -3,9 C -3,8 C 0,0 km/h (0 Bft)
18.01.2012 01:30 -2,0 C 7,5 C -1,9 C -2,6 C -3,9 C 0,0 C 86 % 91 % 0 % 1031,4 hPa 0,0 l/m 0,0 km/h (0 Bft) O 90 0 min 0,0 UV-I -4,0 C -3,9 C 0,0 km/h (0 Bft)
18.01.2012 01:35 -2,1 C 7,5 C -2,0 C -2,8 C -4,1 C 0,0 C 86 % 91 % 0 % 1031,4 hPa 0,0 l/m 0,0 km/h (0 Bft) O 90 0 min 0,0 UV-I -4,1 C -4,1 C 0,0 km/h (0 Bft)
18.01.2012 01:40 -2,1 C 7,5 C -1,9 C -2,8 C -4,1 C 0,0 C 87 % 91 % 0 % 1030,7 hPa 0,0 l/m 0,0 km/h (0 Bft) O 90 0 min 0,0 UV-I -4,0 C -4,1 C 0,0 km/h (0 Bft)
18.01.2012 01:45 -2,3 C 7,5 C -2,1 C -2,9 C -4,2 C 0,0 C 87 % 92 % 0 % 1030,7 hPa 0,0 l/m 0,0 km/h (0 Bft) O 90 0 min 0,0 UV-I -4,2 C -4,2 C 0,0 km/h (0 Bft)
18.01.2012 01:50 -2,4 C 7,5 C -2,1 C -3,0 C -4,3 C 0,0 C 87 % 92 % 0 % 1030,7 hPa 0,0 l/m 0,0 km/h (0 Bft) O 90 0 min 0,0 UV-I -4,3 C -4,3 C 0,0 km/h (0 Bft)
18.01.2012 01:55 -2,5 C 7,5 C -2,1 C -3,2 C -4,5 C 0,0 C 87 % 92 % 0 % 1030,7 hPa 0,0 l/m 0,0 km/h (0 Bft) O 90 0 min 0,0 UV-I -4,4 C -4,5 C 0,0 km/h (0 Bft)
18.01.2012 02:00 -2,5 C 7,5 C -2,1 C -3,2 C -4,5 C 0,0 C 87 % 92 % 0 % 1030,7 hPa 0,0 l/m 0,0 km/h (0 Bft) O 90 0 min 0,0 UV-I -4,4 C -4,5 C 0,0 km/h (0 Bft)
18.01.2012 02:13 -2,5 C 7,4 C -2,1 C -3,1 C -4,3 C 0,0 C 87 % 92 % 0 % 1030,7 hPa 0,0 l/m 0,0 km/h (0 Bft) N 0 0 min 0,0 UV-I -4,4 C -4,3 C 0,0 km/h (0 Bft)
18.01.2012 02:20 -2,5 C 7,4 C -2,4 C -3,1 C -4,4 C 0,0 C 87 % 92 % 0 % 1030,7 hPa 0,0 l/m 0,0 km/h (0 Bft) O 90 0 min 0,0 UV-I -4,4 C -4,4 C 0,0 km/h (0 Bft)
18.01.2012 02:25 -2,7 C 7,4 C -2,4 C -3,3 C -4,4 C 0,0 C 87 % 92 % 0 % 1030,7 hPa 0,0 l/m 0,0 km/h (0 Bft) O 90 0 min 0,0 UV-I -4,6 C -4,4 C 0,0 km/h (0 Bft)
18.01.2012 02:30 -2,7 C 7,4 C -2,3 C -3,3 C -4,4 C 0,0 C 87 % 92 % 0 % 1030,7 hPa 0,0 l/m 0,0 km/h (0 Bft) O 90 0 min 0,0 UV-I -4,6 C -4,4 C 0,0 km/h (0 Bft)
18.01.2012 02:35 -2,8 C 7,4 C -2,5 C -3,4 C -4,5 C 0,0 C 87 % 92 % 0 % 1030,7 hPa 0,0 l/m 0,0 km/h (0 Bft) O 90 0 min 0,0 UV-I -4,7 C -4,5 C 0,0 km/h (0 Bft)
18.01.2012 02:40 -2,8 C 7,4 C -2,5 C -3,4 C -4,5 C 0,0 C 87 % 92 % 0 % 1030,7 hPa 0,0 l/m 0,0 km/h (0 Bft) O 90 0 min 0,0 UV-I -4,7 C -4,5 C 0,0 km/h (0 Bft)
18.01.2012 02:45 -2,8 C 7,4 C -2,5 C -3,4 C -4,5 C 0,0 C 87 % 92 % 0 % 1030,7 hPa 0,0 l/m 0,0 km/h (0 Bft) O 90 0 min 0,0 UV-I -4,7 C -4,5 C 0,0 km/h (0 Bft)
18.01.2012 02:50 -2,8 C 7,4 C -2,5 C -3,3 C -4,4 C 0,0 C 87 % 92 % 0 % 1030,7 hPa 0,0 l/m 0,0 km/h (0 Bft) O 90 0 min 0,0 UV-I -4,7 C -4,4 C 0,0 km/h (0 Bft)
18.01.2012 02:55 -2,8 C 7,4 C -2,5 C -3,4 C -4,5 C 0,0 C 87 % 92 % 0 % 1030,7 hPa 0,0 l/m 0,2 km/h (0 Bft) O 90 0 min 0,0 UV-I -4,7 C -4,5 C 0,0 km/h (0 Bft)
18.01.2012 03:00 -2,9 C 7,4 C -2,5 C -3,4 C -4,4 C 0,0 C 87 % 92 % 0 % 1030,7 hPa 0,0 l/m 0,5 km/h (0 Bft) O 90 0 min 0,0 UV-I -4,8 C -4,4 C 2,4 km/h (1 Bft)
18.01.2012 03:10 -2,7 C 7,4 C -2,3 C -3,2 C -4,3 C 0,0 C 87 % 91 % 0 % 1030,7 hPa 0,0 l/m 0,6 km/h (0 Bft) N 0 0 min 0,0 UV-I -4,6 C -4,3 C 4,2 km/h (1 Bft)
18.01.2012 03:20 -2,9 C 7,4 C -2,5 C -3,4 C -4,5 C 0,0 C 87 % 91 % 0 % 1030,9 hPa 0,0 l/m 0,0 km/h (0 Bft) O 90 0 min 0,0 UV-I -4,8 C -4,5 C 0,0 km/h (0 Bft)
18.01.2012 03:25 -3,0 C 7,4 C -2,7 C -3,6 C -4,7 C 0,0 C 87 % 91 % 0 % 1030,9 hPa 0,0 l/m 0,0 km/h (0 Bft) O 90 0 min 0,0 UV-I -4,9 C -4,7 C 0,0 km/h (0 Bft)
18.01.2012 03:30 -2,9 C 7,4 C -2,7 C -3,6 C -4,9 C 0,0 C 87 % 91 % 0 % 1030,9 hPa 0,0 l/m 0,0 km/h (0 Bft) O 90 0 min 0,0 UV-I -4,8 C -4,9 C 0,0 km/h (0 Bft)
18.01.2012 03:35 -3,1 C 7,4 C -2,7 C -3,7 C -4,9 C 0,0 C 87 % 91 % 0 % 1030,9 hPa 0,0 l/m 0,0 km/h (0 Bft) O 90 0 min 0,0 UV-I -4,9 C -4,9 C 0,0 km/h (0 Bft)
18.01.2012 03:40 -3,3 C 7,4 C -2,7 C -3,9 C -5,0 C 0,0 C 87 % 91 % 0 % 1030,9 hPa 0,0 l/m 0,0 km/h (0 Bft) O 90 0 min 0,0 UV-I -5,1 C -5,0 C 0,0 km/h (0 Bft)
18.01.2012 03:45 -3,3 C 7,4 C -2,8 C -3,9 C -5,0 C 0,0 C 87 % 91 % 0 % 1030,9 hPa 0,0 l/m 0,0 km/h (0 Bft) O 90 0 min 0,0 UV-I -5,1 C -5,0 C 0,0 km/h (0 Bft)
18.01.2012 03:50 -3,3 C 7,4 C -2,9 C -3,8 C -4,9 C 0,0 C 87 % 91 % 0 % 1030,9 hPa 0,0 l/m 0,0 km/h (0 Bft) O 90 0 min 0,0 UV-I -5,1 C -4,9 C 0,0 km/h (0 Bft)
18.01.2012 03:55 -3,3 C 7,4 C -2,9 C -3,8 C -4,9 C 0,0 C 87 % 91 % 0 % 1030,9 hPa 0,0 l/m 0,0 km/h (0 Bft) O 90 0 min 0,0 UV-I -5,1 C -4,9 C 0,0 km/h (0 Bft)
18.01.2012 04:00 -3,3 C 7,3 C -3,0 C -3,8 C -4,9 C 0,0 C 87 % 91 % 0 % 1030,2 hPa 0,0 l/m 0,0 km/h (0 Bft) O 90 0 min 0,0 UV-I -5,1 C -4,9 C 0,0 km/h (0 Bft)
18.01.2012 04:10 -3,3 C 7,3 C -3,2 C -3,9 C -5,0 C 0,0 C 88 % 91 % 0 % 1030,2 hPa 0,0 l/m 0,0 km/h (0 Bft) N 0 0 min 0,0 UV-I -5,0 C -5,0 C 0,0 km/h (0 Bft)
18.01.2012 04:20 -3,5 C 7,3 C -3,1 C -4,0 C -5,1 C 0,0 C 88 % 91 % 0 % 1030,2 hPa 0,0 l/m 0,0 km/h (0 Bft) O 90 0 min 0,0 UV-I -5,2 C -5,1 C 0,0 km/h (0 Bft)
18.01.2012 04:25 -3,5 C 7,3 C -3,1 C -4,1 C -5,2 C 0,0 C 87 % 91 % 0 % 1030,2 hPa 0,0 l/m 0,0 km/h (0 Bft) O 90 0 min 0,0 UV-I -5,3 C -5,2 C 0,0 km/h (0 Bft)
18.01.2012 04:30 -3,6 C 7,3 C -2,9 C -4,1 C -5,2 C 0,0 C 88 % 91 % 0 % 1030,2 hPa 0,0 l/m 0,0 km/h (0 Bft) O 90 0 min 0,0 UV-I -5,3 C -5,2 C 1,6 km/h (1 Bft)
18.01.2012 04:35 -3,5 C 7,3 C -2,9 C -4,0 C -5,0 C 0,0 C 88 % 91 % 0 % 1030,2 hPa 0,0 l/m 0,5 km/h (0 Bft) O 90 0 min 0,0 UV-I -5,2 C -5,0 C 2,6 km/h (1 Bft)
18.01.2012 04:40 -3,3 C 7,3 C -2,7 C -3,8 C -4,9 C 0,0 C 88 % 91 % 0 % 1030,2 hPa 0,0 l/m 1,0 km/h (0 Bft) O 90 0 min 0,0 UV-I -5,0 C -4,9 C 0,0 km/h (0 Bft)
18.01.2012 04:45 -3,3 C 7,3 C -2,8 C -3,8 C -4,7 C 0,0 C 88 % 91 % 0 % 1030,2 hPa 0,0 l/m 1,3 km/h (1 Bft) O 90 0 min 0,0 UV-I -5,0 C -4,7 C 0,0 km/h (0 Bft)
18.01.2012 04:50 -3,1 C 7,3 C -2,8 C -3,6 C -4,7 C 0,0 C 87 % 91 % 0 % 1030,2 hPa 0,0 l/m 1,0 km/h (0 Bft) O 90 0 min 0,0 UV-I -4,9 C -4,7 C 0,0 km/h (0 Bft)
18.01.2012 04:55 -3,1 C 7,3 C -2,8 C -3,6 C -4,6 C 0,0 C 87 % 91 % 0 % 1030,2 hPa 0,0 l/m 1,0 km/h (0 Bft) O 90 0 min 0,0 UV-I -4,9 C -4,6 C 0,0 km/h (0 Bft)
18.01.2012 05:00 -3,1 C 7,3 C -2,8 C -3,6 C -4,6 C 0,0 C 87 % 91 % 0 % 1030,2 hPa 0,0 l/m 0,8 km/h (0 Bft) O 90 0 min 0,0 UV-I -4,9 C -4,6 C 0,0 km/h (0 Bft)
18.01.2012 05:10 -3,1 C 7,3 C -2,9 C -3,7 C -4,8 C 0,0 C 86 % 90 % 0 % 1030,2 hPa 0,0 l/m 0,6 km/h (0 Bft) N 0 0 min 0,0 UV-I -5,1 C -4,8 C 2,1 km/h (1 Bft)
18.01.2012 05:20 -3,1 C 7,2 C -2,7 C -3,6 C -4,6 C 0,0 C 86 % 90 % 0 % 1030,2 hPa 0,0 l/m 1,1 km/h (1 Bft) O 90 0 min 0,0 UV-I -5,1 C -4,6 C 0,0 km/h (0 Bft)
18.01.2012 05:25 -3,1 C 7,2 C -2,7 C -3,6 C -4,7 C 0,0 C 86 % 90 % 0 % 1030,2 hPa 0,0 l/m 1,1 km/h (1 Bft) O 90 0 min 0,0 UV-I -5,1 C -4,7 C 2,9 km/h (1 Bft)
18.01.2012 05:30 -3,1 C 7,2 C -2,7 C -3,6 C -4,7 C 0,0 C 86 % 90 % 0 % 1030,2 hPa 0,0 l/m 0,8 km/h (0 Bft) O 90 0 min 0,0 UV-I -5,1 C -4,7 C 0,0 km/h (0 Bft)
18.01.2012 05:35 -3,1 C 7,3 C -2,8 C -3,6 C -4,7 C 0,0 C 86 % 89 % 0 % 1030,2 hPa 0,0 l/m 0,8 km/h (0 Bft) O 90 0 min 0,0 UV-I -5,1 C -4,7 C 0,0 km/h (0 Bft)
18.01.2012 05:40 -3,1 C 7,2 C -2,9 C -3,7 C -4,8 C 0,0 C 86 % 89 % 0 % 1030,2 hPa 0,0 l/m 0,8 km/h (0 Bft) O 90 0 min 0,0 UV-I -5,1 C -4,8 C 4,7 km/h (1 Bft)
18.01.2012 05:45 -2,9 C 7,2 C -2,7 C -3,5 C -4,7 C 0,0 C 86 % 89 % 0 % 1030,2 hPa 0,0 l/m 1,1 km/h (1 Bft) O 90 0 min 0,0 UV-I -4,9 C -4,7 C 2,3 km/h (1 Bft)
18.01.2012 05:50 -2,9 C 7,2 C -2,8 C -3,5 C -4,6 C 0,0 C 85 % 89 % 0 % 1030,2 hPa 0,0 l/m 1,9 km/h (1 Bft) O 90 0 min 0,0 UV-I -5,1 C -4,6 C 5,3 km/h (1 Bft)
18.01.2012 05:55 -2,9 C 7,2 C -2,8 C -3,5 C -4,6 C 0,0 C 85 % 89 % 0 % 1030,2 hPa 0,0 l/m 1,9 km/h (1 Bft) O 90 0 min 0,0 UV-I -5,1 C -4,6 C 2,1 km/h (1 Bft)
18.01.2012 06:00 -3,0 C 7,2 C -2,8 C -3,5 C -4,5 C 0,0 C 85 % 89 % 0 % 1030,6 hPa 0,0 l/m 1,6 km/h (1 Bft) O 90 0 min 0,0 UV-I -5,2 C -4,5 C 5,5 km/h (1 Bft)
18.01.2012 06:10 -3,1 C 7,0 C -2,7 C -3,6 C -4,7 C 0,0 C 85 % 88 % 0 % 1030,6 hPa 0,0 l/m 0,5 km/h (0 Bft) N 0 0 min 0,0 UV-I -5,3 C -4,7 C 0,0 km/h (0 Bft)
18.01.2012 06:20 -3,1 C 7,2 C -2,7 C -3,6 C -4,7 C 0,0 C 85 % 88 % 0 % 1030,2 hPa 0,0 l/m 0,8 km/h (0 Bft) O 90 0 min 0,0 UV-I -5,3 C -4,7 C 0,0 km/h (0 Bft)
18.01.2012 06:25 -3,1 C 7,2 C -2,8 C -3,6 C -4,7 C 0,0 C 85 % 89 % 0 % 1030,2 hPa 0,0 l/m 0,8 km/h (0 Bft) O 90 0 min 0,0 UV-I -5,3 C -4,7 C 2,4 km/h (1 Bft)
18.01.2012 06:30 -3,1 C 7,0 C -2,8 C -3,6 C -4,7 C 0,0 C 85 % 89 % 0 % 1030,2 hPa 0,0 l/m 0,8 km/h (0 Bft) O 90 0 min 0,0 UV-I -5,3 C -4,7 C 3,1 km/h (1 Bft)
18.01.2012 06:35 -3,1 C 7,2 C -2,8 C -3,6 C -4,7 C 0,0 C 85 % 89 % 0 % 1030,2 hPa 0,0 l/m 1,0 km/h (0 Bft) O 90 0 min 0,0 UV-I -5,3 C -4,7 C 3,9 km/h (1 Bft)
18.01.2012 06:40 -2,9 C 7,2 C -2,8 C -3,5 C -4,6 C 0,0 C 84 % 89 % 0 % 1030,0 hPa 0,0 l/m 1,1 km/h (1 Bft) O 90 0 min 0,0 UV-I -5,2 C -4,6 C 2,9 km/h (1 Bft)
18.01.2012 06:45 -3,0 C 7,2 C -2,7 C -3,5 C -4,6 C 0,0 C 84 % 88 % 0 % 1030,0 hPa 0,0 l/m 1,0 km/h (0 Bft) O 90 0 min 0,0 UV-I -5,3 C -4,6 C 2,1 km/h (1 Bft)
18.01.2012 06:50 -3,0 C 7,0 C -2,7 C -3,5 C -4,6 C 0,0 C 84 % 88 % 0 % 1030,0 hPa 0,0 l/m 0,8 km/h (0 Bft) O 90 0 min 0,0 UV-I -5,3 C -4,6 C 2,9 km/h (1 Bft)
18.01.2012 06:55 -2,9 C 7,0 C -2,5 C -3,4 C -4,5 C 0,0 C 84 % 88 % 0 % 1030,0 hPa 0,0 l/m 1,1 km/h (1 Bft) O 90 0 min 0,0 UV-I -5,2 C -4,5 C 0,0 km/h (0 Bft)
18.01.2012 07:00 -2,9 C 7,0 C -2,5 C -3,4 C -4,5 C 0,0 C 84 % 88 % 0 % 1030,7 hPa 0,0 l/m 1,1 km/h (1 Bft) O 90 0 min 0,0 UV-I -5,2 C -4,5 C 2,6 km/h (1 Bft)
18.01.2012 07:10 -2,9 C 7,0 C -2,5 C -3,4 C -4,5 C 0,0 C 84 % 87 % 0 % 1030,7 hPa 0,0 l/m 1,4 km/h (1 Bft) N 0 0 min 0,0 UV-I -5,2 C -4,5 C 2,3 km/h (1 Bft)
18.01.2012 07:20 -2,9 C 7,0 C -2,5 C -3,5 C -4,6 C 0,0 C 84 % 87 % 0 % 1030,8 hPa 0,0 l/m 0,6 km/h (0 Bft) O 90 0 min 0,0 UV-I -5,2 C -4,6 C 3,7 km/h (1 Bft)
18.01.2012 07:25 -2,8 C 7,0 C -2,5 C -3,3 C -4,4 C 0,0 C 84 % 87 % 0 % 1030,8 hPa 0,0 l/m 1,0 km/h (0 Bft) O 90 0 min 0,0 UV-I -5,1 C -4,4 C 0,0 km/h (0 Bft)
18.01.2012 07:30 -2,8 C 7,0 C -2,5 C -3,3 C -4,4 C 0,0 C 83 % 87 % 0 % 1030,8 hPa 0,0 l/m 1,0 km/h (0 Bft) O 90 0 min 0,0 UV-I -5,3 C -4,4 C 0,0 km/h (0 Bft)
18.01.2012 07:35 -2,8 C 7,0 C -2,6 C -3,3 C -4,4 C 0,0 C 83 % 87 % 0 % 1030,8 hPa 0,0 l/m 0,6 km/h (0 Bft) O 90 0 min 0,0 UV-I -5,3 C -4,4 C 0,0 km/h (0 Bft)
18.01.2012 07:40 -2,8 C 7,0 C -2,5 C -3,3 C -4,4 C 0,0 C 83 % 87 % 0 % 1030,8 hPa 0,0 l/m 0,6 km/h (0 Bft) O 90 0 min 0,0 UV-I -5,3 C -4,4 C 0,0 km/h (0 Bft)
18.01.2012 07:45 -2,7 C 6,9 C -2,6 C -3,3 C -4,4 C 0,0 C 83 % 87 % 0 % 1030,8 hPa 0,0 l/m 1,1 km/h (1 Bft) O 90 0 min 0,0 UV-I -5,2 C -4,4 C 0,0 km/h (0 Bft)
18.01.2012 07:50 -2,7 C 6,9 C -2,5 C -3,2 C -4,2 C 0,0 C 83 % 87 % 0 % 1030,8 hPa 0,0 l/m 1,8 km/h (1 Bft) O 90 0 min 0,0 UV-I -5,2 C -4,2 C 6,6 km/h (2 Bft)
18.01.2012 07:55 -2,5 C 6,9 C -2,3 C -3,1 C -4,4 C 0,0 C 82 % 86 % 0 % 1030,8 hPa 0,0 l/m 2,4 km/h (1 Bft) O 90 0 min 0,0 UV-I -5,1 C -4,4 C 0,0 km/h (0 Bft)
18.01.2012 08:00 -2,5 C 6,9 C -2,3 C -3,3 C -4,9 C 0,0 C 82 % 86 % 0 % 1030,6 hPa 0,0 l/m 3,1 km/h (1 Bft) O 90 0 min 0,0 UV-I -5,1 C -4,9 C 6,6 km/h (2 Bft)
18.01.2012 08:10 -2,3 C 6,9 C -2,1 C -3,1 C -4,6 C 0,0 C 82 % 85 % 0 % 1030,6 hPa 0,0 l/m 3,1 km/h (1 Bft) N 0 0 min 0,0 UV-I -4,9 C -4,6 C 7,7 km/h (2 Bft)
18.01.2012 08:20 -2,3 C 6,8 C -2,1 C -2,8 C -3,8 C 0,0 C 81 % 85 % 0 % 1030,4 hPa 0,0 l/m 1,3 km/h (1 Bft) O-SO 112 0 min 0,0 UV-I -5,1 C -3,8 C 3,5 km/h (1 Bft)
18.01.2012 08:25 -2,3 C 6,8 C -2,1 C -2,8 C -3,8 C 0,0 C 81 % 85 % 0 % 1030,4 hPa 0,0 l/m 0,8 km/h (0 Bft) O-SO 112 0 min 0,0 UV-I -5,1 C -3,8 C 2,4 km/h (1 Bft)
18.01.2012 08:30 -2,3 C 6,8 C -2,2 C -2,8 C -3,8 C 0,0 C 81 % 85 % 0 % 1030,4 hPa 0,0 l/m 1,1 km/h (1 Bft) O-SO 112 0 min 0,0 UV-I -5,1 C -3,8 C 1,8 km/h (1 Bft)
18.01.2012 08:35 -2,3 C 6,9 C -2,1 C -2,8 C -3,8 C 0,0 C 81 % 85 % 0 % 1030,4 hPa 0,0 l/m 1,3 km/h (1 Bft) O-SO 112 0 min 0,0 UV-I -5,1 C -3,8 C 2,3 km/h (1 Bft)
18.01.2012 08:40 -2,3 C 6,9 C -2,1 C -2,8 C -3,7 C 0,0 C 81 % 85 % 0 % 1030,4 hPa 0,0 l/m 1,0 km/h (0 Bft) O-SO 112 0 min 0,0 UV-I -5,1 C -3,7 C 0,0 km/h (0 Bft)
18.01.2012 08:45 -2,3 C 6,9 C -2,2 C -2,8 C -3,8 C 0,0 C 81 % 85 % 0 % 1030,4 hPa 0,0 l/m 0,3 km/h (0 Bft) O-SO 112 0 min 0,0 UV-I -5,1 C -3,8 C 0,0 km/h (0 Bft)
18.01.2012 08:50 -2,3 C 6,8 C -2,1 C -2,7 C -3,6 C 0,0 C 81 % 85 % 0 % 1030,4 hPa 0,0 l/m 0,0 km/h (0 Bft) O-SO 112 0 min 0,0 UV-I -5,1 C -3,6 C 0,0 km/h (0 Bft)
18.01.2012 08:55 -2,1 C 6,8 C -2,1 C -2,5 C -3,4 C 0,0 C 81 % 85 % 0 % 1030,4 hPa 0,0 l/m 0,3 km/h (0 Bft) O-SO 112 0 min 0,0 UV-I -4,9 C -3,4 C 3,1 km/h (1 Bft)
18.01.2012 09:00 -2,1 C 6,8 C -2,1 C -2,5 C -3,3 C 0,0 C 80 % 84 % 0 % 1030,6 hPa 0,0 l/m 1,1 km/h (1 Bft) O-SO 112 0 min 0,0 UV-I -5,1 C -3,3 C 3,5 km/h (1 Bft)
18.01.2012 09:10 -1,7 C 6,8 C -1,7 C -2,4 C -3,9 C 0,0 C 79 % 83 % 0 % 1030,6 hPa 0,0 l/m 3,7 km/h (1 Bft) N 0 0 min 0,0 UV-I -4,8 C -3,9 C 2,7 km/h (1 Bft)
18.01.2012 09:20 -1,3 C 6,8 C -1,5 C -2,0 C -3,3 C 0,0 C 78 % 82 % 0 % 1030,6 hPa 0,0 l/m 3,9 km/h (1 Bft) O-SO 112 0 min 0,0 UV-I -4,6 C -3,3 C 8,0 km/h (2 Bft)
18.01.2012 09:25 -1,4 C 6,8 C -1,4 C -1,7 C -2,4 C 0,0 C 78 % 81 % 0 % 1030,6 hPa 0,0 l/m 3,1 km/h (1 Bft) O-SO 112 0 min 0,0 UV-I -4,7 C -2,4 C 5,8 km/h (2 Bft)
18.01.2012 09:30 -1,3 C 6,8 C -1,3 C -1,4 C -1,7 C 0,0 C 78 % 81 % 0 % 1030,6 hPa 0,0 l/m 2,1 km/h (1 Bft) O-SO 112 0 min 0,0 UV-I -4,6 C -1,7 C 4,0 km/h (1 Bft)
18.01.2012 09:35 -1,1 C 6,8 C -1,2 C -1,3 C -1,6 C 0,0 C 78 % 81 % 0 % 1030,6 hPa 0,0 l/m 1,4 km/h (1 Bft) O-SO 112 0 min 0,0 UV-I -4,4 C -1,6 C 2,7 km/h (1 Bft)
18.01.2012 09:40 -1,2 C 6,8 C -1,2 C -1,2 C -1,3 C 0,0 C 78 % 81 % 0 % 1030,6 hPa 0,0 l/m 1,6 km/h (1 Bft) O-SO 112 0 min 0,0 UV-I -4,5 C -1,3 C 3,4 km/h (1 Bft)
18.01.2012 09:45 -1,1 C 6,7 C -1,1 C -0,6 C -0,6 C 0,5 C 78 % 81 % 13 % 1030,6 hPa 0,0 l/m 1,8 km/h (1 Bft) O-SO 112 0 min 0,0 UV-I -4,4 C -0,6 C 3,7 km/h (1 Bft)
18.01.2012 09:50 -1,0 C 6,7 C -1,0 C -0,7 C -0,7 C 0,3 C 78 % 81 % 8 % 1030,6 hPa 0,0 l/m 1,1 km/h (1 Bft) O-SO 112 0 min 0,0 UV-I -4,3 C -0,7 C 0,0 km/h (0 Bft)
18.01.2012 09:55 -0,7 C 6,7 C -0,7 C -0,8 C -0,9 C 0,0 C 77 % 81 % 0 % 1030,6 hPa 0,0 l/m 2,6 km/h (1 Bft) O-SO 112 0 min 0,0 UV-I -4,2 C -0,9 C 5,8 km/h (2 Bft)
18.01.2012 10:00 -0,5 C 6,7 C -0,7 C -0,8 C -1,3 C 0,0 C 76 % 80 % 0 % 1030,1 hPa 0,0 l/m 3,2 km/h (1 Bft) O-SO 112 0 min 0,0 UV-I -4,2 C -1,3 C 8,2 km/h (2 Bft)
18.01.2012 10:10 -0,3 C 6,7 C -0,5 C 0,3 C 0,3 C 0,6 C 76 % 80 % 16 % 1030,1 hPa 0,0 l/m 2,3 km/h (1 Bft) N 0 0 min 0,0 UV-I -4,0 C 0,3 C 9,0 km/h (2 Bft)
18.01.2012 10:20 0,0 C 6,7 C -0,3 C 0,0 C 0,0 C 0,0 C 75 % 79 % 0 % 1030,1 hPa 0,0 l/m 2,4 km/h (1 Bft) O-SO 112 0 min 0,0 UV-I -3,9 C 0,0 C 10,8 km/h (2 Bft)
18.01.2012 10:25 0,3 C 6,7 C -0,1 C 0,2 C 0,1 C 0,0 C 74 % 79 % 0 % 1030,1 hPa 0,0 l/m 2,7 km/h (1 Bft) O-SO 112 0 min 0,0 UV-I -3,8 C 0,1 C 3,9 km/h (1 Bft)
18.01.2012 10:30 0,3 C 6,7 C -0,1 C 0,5 C 0,5 C 0,2 C 74 % 79 % 5 % 1030,1 hPa 0,0 l/m 3,2 km/h (1 Bft) O-SO 112 0 min 0,0 UV-I -3,8 C 0,5 C 15,6 km/h (3 Bft)
18.01.2012 10:35 0,5 C 6,6 C 0,1 C 1,5 C 1,5 C 1,0 C 73 % 79 % 26 % 1030,1 hPa 0,0 l/m 2,9 km/h (1 Bft) O-SO 112 0 min 0,0 UV-I -3,8 C 1,5 C 1,9 km/h (1 Bft)
18.01.2012 10:40 0,4 C 6,6 C 0,3 C 1,6 C 1,6 C 1,2 C 74 % 79 % 32 % 1029,8 hPa 0,0 l/m 1,9 km/h (1 Bft) O-SO 112 0 min 0,0 UV-I -3,7 C 1,6 C 2,9 km/h (1 Bft)
18.01.2012 10:45 0,5 C 6,6 C 0,2 C 1,6 C 1,6 C 1,1 C 73 % 79 % 29 % 1029,8 hPa 0,0 l/m 1,3 km/h (1 Bft) O-SO 112 0 min 0,0 UV-I -3,8 C 1,6 C 0,0 km/h (0 Bft)
18.01.2012 10:50 0,7 C 6,6 C 0,3 C 1,6 C 1,6 C 0,9 C 73 % 78 % 24 % 1029,8 hPa 0,0 l/m 1,8 km/h (1 Bft) O-SO 112 0 min 0,0 UV-I -3,6 C 1,6 C 5,3 km/h (1 Bft)
18.01.2012 10:55 0,8 C 6,6 C 0,5 C 1,6 C 1,6 C 0,8 C 73 % 78 % 21 % 1029,8 hPa 0,0 l/m 1,9 km/h (1 Bft) O-SO 112 0 min 0,0 UV-I -3,5 C 1,6 C 0,0 km/h (0 Bft)
18.01.2012 11:00 0,8 C 6,6 C 0,5 C 1,7 C 1,7 C 0,9 C 73 % 78 % 24 % 1029,8 hPa 0,0 l/m 1,9 km/h (1 Bft) SO 135 0 min 0,0 UV-I -3,5 C 1,7 C 6,4 km/h (2 Bft)
18.01.2012 11:10 1,2 C 6,6 C 0,9 C 2,2 C 2,2 C 1,0 C 72 % 76 % 26 % 1029,8 hPa 0,0 l/m 3,2 km/h (1 Bft) N 0 0 min 0,0 UV-I -3,3 C 2,2 C 3,7 km/h (1 Bft)
18.01.2012 11:20 1,4 C 6,6 C 1,1 C 2,8 C 2,8 C 1,4 C 71 % 76 % 37 % 1029,8 hPa 0,0 l/m 2,3 km/h (1 Bft) W 270 0 min 0,0 UV-I -3,3 C 2,8 C 2,9 km/h (1 Bft)
18.01.2012 11:25 1,6 C 6,6 C 1,2 C 2,3 C 2,3 C 0,7 C 70 % 75 % 18 % 1029,8 hPa 0,0 l/m 3,2 km/h (1 Bft) SW 225 0 min 0,0 UV-I -3,3 C 2,3 C 7,4 km/h (2 Bft)
18.01.2012 11:30 1,8 C 6,6 C 1,4 C 2,2 C 2,2 C 0,4 C 70 % 75 % 11 % 1029,8 hPa 0,0 l/m 3,7 km/h (1 Bft) S-SW 202 0 min 0,0 UV-I -3,1 C 2,2 C 4,5 km/h (1 Bft)
18.01.2012 11:35 1,9 C 6,6 C 1,6 C 3,5 C 3,5 C 1,6 C 70 % 74 % 42 % 1029,8 hPa 0,0 l/m 4,7 km/h (1 Bft) O-SO 112 0 min 0,0 UV-I -3,0 C 2,5 C 2,7 km/h (1 Bft)
18.01.2012 11:40 2,0 C 6,6 C 1,7 C 4,8 C 4,8 C 2,8 C 70 % 74 % 74 % 1029,4 hPa 0,0 l/m 4,3 km/h (1 Bft) N-NO 22 0 min 0,0 UV-I -2,9 C 4,8 C 4,5 km/h (1 Bft)
18.01.2012 11:45 2,2 C 6,6 C 1,9 C 5,9 C 5,9 C 3,7 C 69 % 74 % 97 % 1029,4 hPa 0,0 l/m 3,4 km/h (1 Bft) SW 225 5 min 0,0 UV-I -2,9 C 5,9 C 6,8 km/h (2 Bft)
18.01.2012 11:50 2,3 C 6,6 C 2,0 C 6,1 C 6,1 C 3,8 C 69 % 74 % 100 % 1029,4 hPa 0,0 l/m 3,5 km/h (1 Bft) W-SW 247 5 min 0,0 UV-I -2,8 C 6,1 C 8,2 km/h (2 Bft)
18.01.2012 11:55 2,4 C 6,6 C 2,1 C 5,9 C 5,9 C 3,5 C 69 % 74 % 92 % 1029,4 hPa 0,0 l/m 3,5 km/h (1 Bft) S 180 5 min 0,0 UV-I -2,7 C 5,9 C 5,3 km/h (1 Bft)
18.01.2012 12:00 2,7 C 6,6 C 2,3 C 5,6 C 5,6 C 2,9 C 68 % 73 % 76 % 1028,8 hPa 0,0 l/m 3,5 km/h (1 Bft) W-SW 247 0 min 0,0 UV-I -2,6 C 5,6 C 5,5 km/h (1 Bft)
18.01.2012 12:10 2,8 C 6,6 C 2,5 C 4,6 C 4,6 C 1,8 C 66 % 70 % 47 % 1028,8 hPa 0,0 l/m 4,2 km/h (1 Bft) N 0 0 min 0,0 UV-I -2,9 C 4,6 C 6,1 km/h (2 Bft)
18.01.2012 12:20 3,0 C 6,6 C 2,6 C 4,8 C 4,8 C 1,8 C 66 % 71 % 47 % 1028,8 hPa 0,0 l/m 3,9 km/h (1 Bft) S 180 0 min 0,0 UV-I -2,7 C 4,8 C 6,1 km/h (2 Bft)
18.01.2012 12:25 3,1 C 6,6 C 2,8 C 4,9 C 4,9 C 1,8 C 65 % 70 % 47 % 1028,8 hPa 0,0 l/m 3,4 km/h (1 Bft) SW 225 0 min 0,0 UV-I -2,8 C 4,9 C 3,7 km/h (1 Bft)
18.01.2012 12:30 3,2 C 6,5 C 2,8 C 4,9 C 4,9 C 1,7 C 65 % 70 % 45 % 1028,8 hPa 0,0 l/m 3,4 km/h (1 Bft) W 270 0 min 0,0 UV-I -2,7 C 4,9 C 3,2 km/h (1 Bft)
18.01.2012 12:35 3,2 C 6,5 C 2,8 C 4,6 C 4,6 C 1,4 C 64 % 70 % 37 % 1028,8 hPa 0,0 l/m 4,2 km/h (1 Bft) W 270 0 min 0,0 UV-I -2,9 C 4,6 C 5,5 km/h (1 Bft)
18.01.2012 12:40 3,2 C 6,5 C 2,9 C 4,8 C 4,8 C 1,6 C 64 % 70 % 42 % 1029,1 hPa 0,0 l/m 3,7 km/h (1 Bft) W-SW 247 0 min 0,0 UV-I -2,9 C 4,8 C 1,8 km/h (1 Bft)
18.01.2012 12:45 3,4 C 6,5 C 3,0 C 5,2 C 5,2 C 1,8 C 63 % 69 % 47 % 1029,1 hPa 0,0 l/m 3,2 km/h (1 Bft) W-SW 247 0 min 0,0 UV-I -3,0 C 5,2 C 5,3 km/h (1 Bft)
18.01.2012 12:50 3,4 C 6,5 C 3,1 C 4,8 C 4,8 C 1,4 C 63 % 69 % 37 % 1029,1 hPa 0,0 l/m 3,9 km/h (1 Bft) W-SW 247 0 min 0,0 UV-I -3,0 C 4,8 C 5,8 km/h (2 Bft)
18.01.2012 12:55 3,6 C 6,5 C 3,1 C 4,9 C 4,9 C 1,3 C 64 % 68 % 34 % 1029,1 hPa 0,0 l/m 3,9 km/h (1 Bft) S 180 0 min 0,0 UV-I -2,6 C 4,9 C 0,0 km/h (0 Bft)
18.01.2012 13:00 3,6 C 6,5 C 3,1 C 5,4 C 5,4 C 1,8 C 63 % 68 % 47 % 1029,1 hPa 0,0 l/m 3,1 km/h (1 Bft) W-SW 247 0 min 0,0 UV-I -2,8 C 5,4 C 3,7 km/h (1 Bft)
18.01.2012 13:07 3,7 C 6,6 C 3,2 C 5,7 C 5,7 C 2,0 C 63 % 67 % 53 % 1029,1 hPa 0,0 l/m 2,6 km/h (1 Bft) N 0 0 min 0,0 UV-I -2,7 C 5,7 C 11,3 km/h (2 Bft)
18.01.2012 13:20 4,0 C 6,6 C 3,5 C 5,9 C 5,9 C 1,9 C 61 % 67 % 50 % 1029,1 hPa 0,0 l/m 3,9 km/h (1 Bft) W-NW 292 0 min 0,0 UV-I -2,8 C 5,9 C 7,6 km/h (2 Bft)
18.01.2012 13:25 4,1 C 6,6 C 3,6 C 5,6 C 5,6 C 1,5 C 60 % 64 % 39 % 1029,1 hPa 0,0 l/m 4,3 km/h (1 Bft) SO 135 0 min 0,0 UV-I -3,0 C 5,6 C 6,1 km/h (2 Bft)
18.01.2012 13:30 4,1 C 6,6 C 3,7 C 5,4 C 5,4 C 1,3 C 60 % 64 % 34 % 1029,1 hPa 0,0 l/m 4,7 km/h (1 Bft) W-SW 247 0 min 0,0 UV-I -3,0 C 4,7 C 6,1 km/h (2 Bft)
18.01.2012 13:35 4,3 C 6,6 C 3,3 C 6,2 C 6,2 C 1,9 C 60 % 65 % 50 % 1029,1 hPa 0,0 l/m 3,9 km/h (1 Bft) O-SO 112 0 min 0,0 UV-I -2,8 C 6,2 C 4,0 km/h (1 Bft)
18.01.2012 13:40 4,3 C 6,6 C 3,5 C 6,6 C 6,6 C 2,3 C 58 % 64 % 61 % 1029,1 hPa 0,0 l/m 3,7 km/h (1 Bft) O-SO 112 0 min 0,0 UV-I -3,2 C 6,6 C 9,3 km/h (2 Bft)
18.01.2012 13:45 4,5 C 6,6 C 3,5 C 6,7 C 6,7 C 2,2 C 58 % 64 % 58 % 1029,1 hPa 0,0 l/m 4,2 km/h (1 Bft) NW 315 0 min 0,0 UV-I -3,0 C 6,7 C 4,0 km/h (1 Bft)
18.01.2012 13:50 4,4 C 6,6 C 3,7 C 7,3 C 7,3 C 2,9 C 58 % 64 % 76 % 1029,1 hPa 0,0 l/m 4,0 km/h (1 Bft) S-SO 157 0 min 0,0 UV-I -3,1 C 7,3 C 4,8 km/h (1 Bft)
18.01.2012 13:55 4,7 C 6,6 C 3,8 C 8,1 C 8,1 C 3,4 C 57 % 64 % 89 % 1029,1 hPa 0,0 l/m 3,5 km/h (1 Bft) S-SW 202 5 min 0,0 UV-I -3,1 C 8,1 C 5,0 km/h (1 Bft)
18.01.2012 14:00 4,7 C 6,5 C 4,0 C 8,0 C 8,0 C 3,3 C 58 % 64 % 87 % 1029,1 hPa 0,0 l/m 3,7 km/h (1 Bft) W-SW 247 5 min 0,0 UV-I -2,8 C 8,0 C 7,2 km/h (2 Bft)
18.01.2012 14:10 4,7 C 6,5 C 4,0 C 6,6 C 6,6 C 1,9 C 56 % 66 % 50 % 1029,1 hPa 0,0 l/m 5,0 km/h (1 Bft) N 0 0 min 0,0 UV-I -3,3 C 5,9 C 5,5 km/h (1 Bft)
18.01.2012 14:20 4,9 C 6,6 C 4,0 C 6,0 C 6,0 C 1,1 C 56 % 64 % 29 % 1027,9 hPa 0,0 l/m 6,4 km/h (2 Bft) SW 225 0 min 0,0 UV-I -3,1 C 4,7 C 8,0 km/h (2 Bft)
18.01.2012 14:25 4,9 C 6,6 C 4,1 C 6,8 C 6,8 C 1,9 C 55 % 63 % 50 % 1027,9 hPa 0,0 l/m 5,6 km/h (1 Bft) SW 225 0 min 0,0 UV-I -3,4 C 5,9 C 6,1 km/h (2 Bft)
18.01.2012 14:30 5,1 C 6,6 C 4,3 C 6,9 C 6,9 C 1,8 C 56 % 66 % 47 % 1027,9 hPa 0,0 l/m 5,3 km/h (1 Bft) S 180 0 min 0,0 UV-I -2,9 C 6,1 C 8,4 km/h (2 Bft)
18.01.2012 14:35 5,1 C 6,6 C 5,3 C 6,7 C 6,7 C 1,6 C 54 % 63 % 42 % 1027,9 hPa 0,0 l/m 5,8 km/h (2 Bft) W-SW 247 0 min 0,0 UV-I -3,4 C 5,7 C 4,5 km/h (1 Bft)
18.01.2012 14:40 5,1 C 6,6 C 5,5 C 6,7 C 6,7 C 1,6 C 54 % 62 % 42 % 1027,9 hPa 0,0 l/m 5,6 km/h (1 Bft) S 180 0 min 0,0 UV-I -3,4 C 5,8 C 5,5 km/h (1 Bft)
18.01.2012 14:45 5,1 C 6,6 C 5,1 C 7,1 C 7,1 C 2,0 C 55 % 65 % 53 % 1027,9 hPa 0,0 l/m 5,1 km/h (1 Bft) W 270 0 min 0,0 UV-I -3,2 C 6,4 C 3,7 km/h (1 Bft)
18.01.2012 14:50 5,2 C 6,6 C 4,8 C 7,2 C 7,2 C 2,0 C 55 % 65 % 53 % 1027,9 hPa 0,0 l/m 4,8 km/h (1 Bft) O-SO 112 0 min 0,0 UV-I -3,1 C 6,7 C 7,2 km/h (2 Bft)
18.01.2012 14:55 5,2 C 6,6 C 4,7 C 7,3 C 7,3 C 2,1 C 54 % 65 % 55 % 1027,9 hPa 0,0 l/m 4,5 km/h (1 Bft) S 180 0 min 0,0 UV-I -3,3 C 7,3 C 9,8 km/h (2 Bft)
18.01.2012 15:00 5,2 C 6,6 C 4,7 C 7,5 C 7,5 C 2,3 C 54 % 64 % 61 % 1027,9 hPa 0,0 l/m 4,0 km/h (1 Bft) W-SW 247 0 min 0,0 UV-I -3,3 C 7,5 C 3,9 km/h (1 Bft)
18.01.2012 15:10 5,1 C 6,6 C 4,5 C 7,8 C 7,8 C 2,7 C 53 % 61 % 71 % 1027,9 hPa 0,0 l/m 3,2 km/h (1 Bft) N 0 0 min 0,0 UV-I -3,7 C 7,8 C 5,8 km/h (2 Bft)
18.01.2012 15:20 5,1 C 6,6 C 4,6 C 6,9 C 6,9 C 1,8 C 53 % 57 % 47 % 1027,7 hPa 0,0 l/m 3,9 km/h (1 Bft) SW 225 0 min 0,0 UV-I -3,7 C 6,9 C 4,0 km/h (1 Bft)
18.01.2012 15:25 5,1 C 6,6 C 4,7 C 6,7 C 6,7 C 1,6 C 53 % 57 % 42 % 1027,7 hPa 0,0 l/m 3,5 km/h (1 Bft) S 180 0 min 0,0 UV-I -3,7 C 6,7 C 4,0 km/h (1 Bft)
18.01.2012 15:30 4,9 C 6,6 C 4,5 C 6,0 C 6,0 C 1,1 C 53 % 59 % 29 % 1027,7 hPa 0,0 l/m 3,7 km/h (1 Bft) W 270 0 min 0,0 UV-I -3,9 C 6,0 C 6,3 km/h (2 Bft)
18.01.2012 15:35 4,9 C 6,6 C 4,5 C 5,6 C 5,6 C 0,7 C 53 % 59 % 18 % 1027,7 hPa 0,0 l/m 3,4 km/h (1 Bft) N-NO 22 0 min 0,0 UV-I -3,9 C 5,6 C 1,6 km/h (1 Bft)
18.01.2012 15:40 4,8 C 6,6 C 4,4 C 5,1 C 5,1 C 0,3 C 53 % 57 % 8 % 1027,7 hPa 0,0 l/m 3,7 km/h (1 Bft) S-SO 157 0 min 0,0 UV-I -4,0 C 5,1 C 10,5 km/h (2 Bft)
18.01.2012 15:45 4,8 C 6,6 C 4,3 C 4,8 C 4,7 C 0,0 C 53 % 57 % 0 % 1027,7 hPa 0,0 l/m 3,7 km/h (1 Bft) SW 225 0 min 0,0 UV-I -4,0 C 4,7 C 4,3 km/h (1 Bft)
18.01.2012 15:50 4,7 C 6,6 C 4,3 C 4,6 C 4,5 C 0,0 C 53 % 58 % 0 % 1027,7 hPa 0,0 l/m 3,4 km/h (1 Bft) S 180 0 min 0,0 UV-I -4,0 C 4,5 C 3,2 km/h (1 Bft)
18.01.2012 15:55 4,5 C 6,6 C 4,1 C 4,4 C 4,3 C 0,0 C 53 % 58 % 0 % 1027,7 hPa 0,0 l/m 2,4 km/h (1 Bft) SO 135 0 min 0,0 UV-I -4,2 C 4,3 C 2,1 km/h (1 Bft)
18.01.2012 16:00 4,5 C 6,6 C 4,1 C 4,4 C 4,1 C 0,0 C 53 % 58 % 0 % 1027,0 hPa 0,0 l/m 2,3 km/h (1 Bft) S 180 0 min 0,0 UV-I -4,2 C 4,1 C 5,0 km/h (1 Bft)
18.01.2012 16:10 4,3 C 6,6 C 3,9 C 4,0 C 3,5 C 0,0 C 54 % 58 % 0 % 1027,0 hPa 0,0 l/m 1,8 km/h (1 Bft) N 0 0 min 0,0 UV-I -4,2 C 3,5 C 3,9 km/h (1 Bft)
18.01.2012 16:20 4,0 C 6,6 C 3,6 C 3,7 C 3,1 C 0,0 C 53 % 58 % 0 % 1027,0 hPa 0,0 l/m 2,3 km/h (1 Bft) NW 315 0 min 0,0 UV-I -4,7 C 3,1 C 5,1 km/h (1 Bft)
18.01.2012 16:25 4,0 C 6,6 C 3,6 C 3,6 C 2,9 C 0,0 C 53 % 58 % 0 % 1027,0 hPa 0,0 l/m 2,9 km/h (1 Bft) SW 225 0 min 0,0 UV-I -4,7 C 2,9 C 6,8 km/h (2 Bft)
18.01.2012 16:30 3,9 C 6,6 C 3,5 C 3,4 C 2,5 C 0,0 C 53 % 58 % 0 % 1027,0 hPa 0,0 l/m 3,5 km/h (1 Bft) S 180 0 min 0,0 UV-I -4,8 C 2,5 C 6,6 km/h (2 Bft)
18.01.2012 16:35 3,9 C 6,7 C 3,5 C 3,3 C 2,1 C 0,0 C 53 % 57 % 0 % 1027,0 hPa 0,0 l/m 4,0 km/h (1 Bft) S 180 0 min 0,0 UV-I -4,8 C 2,1 C 2,7 km/h (1 Bft)
18.01.2012 16:40 3,9 C 6,7 C 3,5 C 3,4 C 2,3 C 0,0 C 54 % 58 % 0 % 1026,9 hPa 0,0 l/m 3,5 km/h (1 Bft) S 180 0 min 0,0 UV-I -4,5 C 2,3 C 3,4 km/h (1 Bft)
18.01.2012 16:45 3,7 C 6,7 C 3,4 C 3,2 C 2,3 C 0,0 C 53 % 58 % 0 % 1026,9 hPa 0,0 l/m 3,4 km/h (1 Bft) O-NO 67 0 min 0,0 UV-I -5,0 C 2,3 C 4,2 km/h (1 Bft)
18.01.2012 16:50 3,7 C 6,7 C 3,3 C 3,1 C 1,8 C 0,0 C 53 % 57 % 0 % 1026,9 hPa 0,0 l/m 4,0 km/h (1 Bft) S 180 0 min 0,0 UV-I -5,0 C 1,8 C 6,3 km/h (2 Bft)
18.01.2012 16:55 3,6 C 6,7 C 3,2 C 2,9 C 1,6 C 0,0 C 53 % 58 % 0 % 1026,9 hPa 0,0 l/m 4,5 km/h (1 Bft) S-SO 157 0 min 0,0 UV-I -5,1 C 1,6 C 5,1 km/h (1 Bft)
18.01.2012 17:00 3,6 C 6,7 C 3,1 C 3,1 C 2,1 C 0,0 C 53 % 58 % 0 % 1026,9 hPa 0,0 l/m 3,4 km/h (1 Bft) S-SO 157 0 min 0,0 UV-I -5,1 C 2,1 C 2,3 km/h (1 Bft)
18.01.2012 17:10 3,5 C 6,7 C 2,9 C 3,0 C 2,1 C 0,0 C 53 % 58 % 0 % 1026,9 hPa 0,0 l/m 2,3 km/h (1 Bft) N 0 0 min 0,0 UV-I -5,2 C 2,1 C 2,4 km/h (1 Bft)
18.01.2012 17:20 3,3 C 6,7 C 3,0 C 2,8 C 1,9 C 0,0 C 53 % 56 % 0 % 1026,9 hPa 0,0 l/m 2,9 km/h (1 Bft) O-NO 67 0 min 0,0 UV-I -5,3 C 1,9 C 5,5 km/h (1 Bft)
18.01.2012 17:25 3,2 C 6,7 C 2,8 C 2,7 C 1,8 C 0,0 C 53 % 58 % 0 % 1026,9 hPa 0,0 l/m 3,1 km/h (1 Bft) O-SO 112 0 min 0,0 UV-I -5,4 C 1,8 C 5,0 km/h (1 Bft)
18.01.2012 17:30 3,3 C 6,7 C 2,8 C 2,8 C 1,7 C 0,0 C 53 % 58 % 0 % 1026,9 hPa 0,0 l/m 3,2 km/h (1 Bft) W 270 0 min 0,0 UV-I -5,3 C 1,7 C 11,1 km/h (2 Bft)
18.01.2012 17:35 3,1 C 6,7 C 2,8 C 2,6 C 1,7 C 0,0 C 53 % 58 % 0 % 1026,9 hPa 0,0 l/m 3,2 km/h (1 Bft) S-SO 157 0 min 0,0 UV-I -5,5 C 1,7 C 5,3 km/h (1 Bft)
18.01.2012 17:40 3,1 C 6,7 C 2,8 C 2,6 C 1,7 C 0,0 C 53 % 58 % 0 % 1027,0 hPa 0,0 l/m 3,2 km/h (1 Bft) S 180 0 min 0,0 UV-I -5,5 C 1,7 C 6,9 km/h (2 Bft)
18.01.2012 17:45 3,2 C 6,7 C 2,8 C 2,6 C 1,4 C 0,0 C 54 % 59 % 0 % 1027,0 hPa 0,0 l/m 4,0 km/h (1 Bft) SW 225 0 min 0,0 UV-I -5,2 C 1,4 C 8,0 km/h (2 Bft)
18.01.2012 17:50 3,2 C 6,7 C 2,8 C 2,5 C 1,1 C 0,0 C 54 % 58 % 0 % 1027,0 hPa 0,0 l/m 4,7 km/h (1 Bft) SO 135 0 min 0,0 UV-I -5,2 C -0,2 C 6,6 km/h (2 Bft)
18.01.2012 17:55 3,1 C 6,7 C 2,8 C 2,5 C 1,2 C 0,0 C 54 % 59 % 0 % 1027,0 hPa 0,0 l/m 4,5 km/h (1 Bft) S 180 0 min 0,0 UV-I -5,3 C 1,2 C 6,9 km/h (2 Bft)
18.01.2012 18:00 3,0 C 6,7 C 2,7 C 2,4 C 1,1 C 0,0 C 55 % 59 % 0 % 1026,6 hPa 0,0 l/m 4,7 km/h (1 Bft) NW 315 0 min 0,0 UV-I -5,1 C -0,2 C 9,5 km/h (2 Bft)
18.01.2012 18:10 3,1 C 6,7 C 2,7 C 2,5 C 1,2 C 0,0 C 55 % 60 % 0 % 1026,6 hPa 0,0 l/m 4,5 km/h (1 Bft) N 0 0 min 0,0 UV-I -5,0 C 1,2 C 4,3 km/h (1 Bft)
18.01.2012 18:20 3,0 C 6,7 C 2,7 C 2,3 C 1,0 C 0,0 C 56 % 61 % 0 % 1026,6 hPa 0,0 l/m 4,8 km/h (1 Bft) SW 225 0 min 0,0 UV-I -4,9 C -0,4 C 4,7 km/h (1 Bft)
18.01.2012 18:25 3,1 C 6,7 C 2,6 C 2,3 C 0,7 C 0,0 C 56 % 61 % 0 % 1026,6 hPa 0,0 l/m 5,5 km/h (1 Bft) O-SO 112 0 min 0,0 UV-I -4,8 C -1,0 C 6,8 km/h (2 Bft)
18.01.2012 18:30 3,1 C 6,7 C 2,7 C 2,4 C 0,9 C 0,0 C 57 % 61 % 0 % 1026,6 hPa 0,0 l/m 5,1 km/h (1 Bft) N 360 0 min 0,0 UV-I -4,6 C -0,6 C 10,9 km/h (2 Bft)
18.01.2012 18:35 3,0 C 6,7 C 2,7 C 2,4 C 1,2 C 0,0 C 57 % 61 % 0 % 1026,6 hPa 0,0 l/m 4,3 km/h (1 Bft) NO 45 0 min 0,0 UV-I -4,7 C 1,2 C 5,5 km/h (1 Bft)
18.01.2012 18:40 3,0 C 6,7 C 2,7 C 2,4 C 1,2 C 0,0 C 58 % 61 % 0 % 1026,6 hPa 0,0 l/m 4,3 km/h (1 Bft) SO 135 0 min 0,0 UV-I -4,4 C 1,2 C 3,9 km/h (1 Bft)
18.01.2012 18:45 3,0 C 6,7 C 2,7 C 2,3 C 0,8 C 0,0 C 57 % 62 % 0 % 1026,6 hPa 0,0 l/m 5,3 km/h (1 Bft) SO 135 0 min 0,0 UV-I -4,7 C -0,8 C 11,1 km/h (2 Bft)
18.01.2012 18:50 3,0 C 6,7 C 2,7 C 2,3 C 0,8 C 0,0 C 58 % 62 % 0 % 1026,6 hPa 0,0 l/m 5,3 km/h (1 Bft) W-SW 247 0 min 0,0 UV-I -4,4 C -0,8 C 4,0 km/h (1 Bft)
18.01.2012 18:55 3,0 C 6,7 C 2,7 C 2,2 C 0,6 C 0,0 C 58 % 62 % 0 % 1026,6 hPa 0,0 l/m 6,4 km/h (2 Bft) W-SW 247 0 min 0,0 UV-I -4,4 C -1,5 C 20,0 km/h (4 Bft)
18.01.2012 19:00 3,1 C 6,7 C 2,7 C 2,2 C 0,4 C 0,0 C 58 % 62 % 0 % 1025,6 hPa 0,0 l/m 7,2 km/h (2 Bft) W 270 0 min 0,0 UV-I -4,3 C -2,0 C 5,6 km/h (1 Bft)
18.01.2012 19:10 3,1 C 6,7 C 2,8 C 2,3 C 0,7 C 0,0 C 58 % 62 % 0 % 1025,6 hPa 0,0 l/m 7,2 km/h (2 Bft) N 0 0 min 0,0 UV-I -4,3 C -1,7 C 22,5 km/h (4 Bft)
18.01.2012 19:20 3,2 C 6,7 C 2,8 C 2,6 C 0,4 C 0,0 C 58 % 63 % 0 % 1025,5 hPa 0,0 l/m 8,5 km/h (2 Bft) W-SW 247 0 min 0,0 UV-I -4,3 C -2,4 C 26,6 km/h (4 Bft)
18.01.2012 19:25 3,1 C 6,7 C 2,8 C 2,5 C 0,5 C 0,0 C 58 % 63 % 0 % 1025,5 hPa 0,0 l/m 7,9 km/h (2 Bft) O-SO 112 0 min 0,0 UV-I -4,3 C -2,1 C 10,1 km/h (2 Bft)
18.01.2012 19:30 3,2 C 6,7 C 2,9 C 2,3 C 0,6 C 0,0 C 58 % 63 % 0 % 1025,5 hPa 0,0 l/m 7,6 km/h (2 Bft) O-NO 67 0 min 0,0 UV-I -4,3 C -1,9 C 5,1 km/h (1 Bft)
18.01.2012 19:35 3,2 C 6,7 C 2,8 C 2,4 C 0,8 C 0,0 C 58 % 62 % 0 % 1025,5 hPa 0,0 l/m 6,8 km/h (2 Bft) S-SO 157 0 min 0,0 UV-I -4,3 C -1,4 C 15,8 km/h (3 Bft)
18.01.2012 19:40 3,2 C 6,7 C 2,8 C 2,5 C 1,1 C 0,0 C 58 % 62 % 0 % 1025,5 hPa 0,0 l/m 6,1 km/h (2 Bft) S-SO 157 0 min 0,0 UV-I -4,3 C -0,8 C 3,5 km/h (1 Bft)
18.01.2012 19:45 3,2 C 6,7 C 2,8 C 2,4 C 0,9 C 0,0 C 59 % 62 % 0 % 1025,5 hPa 0,0 l/m 6,4 km/h (2 Bft) S 180 0 min 0,0 UV-I -4,0 C -1,1 C 6,6 km/h (2 Bft)
18.01.2012 19:50 3,1 C 6,7 C 2,8 C 2,4 C 1,1 C 0,0 C 59 % 63 % 0 % 1025,5 hPa 0,0 l/m 5,5 km/h (1 Bft) W-SW 247 0 min 0,0 UV-I -4,1 C -0,6 C 6,9 km/h (2 Bft)
18.01.2012 19:55 3,1 C 6,7 C 2,8 C 2,4 C 1,1 C 0,0 C 59 % 62 % 0 % 1025,5 hPa 0,0 l/m 5,5 km/h (1 Bft) N 360 0 min 0,0 UV-I -4,1 C -0,6 C 5,8 km/h (2 Bft)
18.01.2012 20:00 3,1 C 6,7 C 2,8 C 2,3 C 0,8 C 0,0 C 59 % 63 % 0 % 1025,5 hPa 0,0 l/m 6,4 km/h (2 Bft) W-SW 247 0 min 0,0 UV-I -4,1 C -1,3 C 11,4 km/h (2 Bft)
18.01.2012 20:10 3,0 C 6,7 C 2,7 C 2,4 C 0,3 C 0,0 C 59 % 64 % 0 % 1025,5 hPa 0,0 l/m 7,7 km/h (2 Bft) N 0 0 min 0,0 UV-I -4,2 C -2,3 C 8,4 km/h (2 Bft)
18.01.2012 20:20 3,0 C 6,7 C 2,7 C 2,2 C 0,7 C 0,0 C 60 % 65 % 0 % 1025,2 hPa 0,0 l/m 6,3 km/h (2 Bft) W-SW 247 0 min 0,0 UV-I -4,0 C -1,3 C 12,1 km/h (2 Bft)
18.01.2012 20:25 3,0 C 6,7 C 2,7 C 2,3 C 0,9 C 0,0 C 61 % 65 % 0 % 1025,2 hPa 0,0 l/m 5,8 km/h (2 Bft) S-SW 202 0 min 0,0 UV-I -3,8 C -0,9 C 6,3 km/h (2 Bft)
18.01.2012 20:30 2,9 C 6,7 C 2,7 C 2,3 C 1,1 C 0,0 C 61 % 65 % 0 % 1025,2 hPa 0,0 l/m 5,3 km/h (1 Bft) S-SW 202 0 min 0,0 UV-I -3,9 C -0,5 C 11,7 km/h (2 Bft)
18.01.2012 20:35 3,0 C 6,7 C 2,7 C 2,5 C 1,4 C 0,0 C 61 % 65 % 0 % 1025,2 hPa 0,0 l/m 4,7 km/h (1 Bft) S-SO 157 0 min 0,0 UV-I -3,8 C 0,1 C 10,6 km/h (2 Bft)
18.01.2012 20:40 2,9 C 6,7 C 2,8 C 2,4 C 1,4 C 0,0 C 62 % 66 % 0 % 1025,2 hPa 0,0 l/m 4,7 km/h (1 Bft) S 180 0 min 0,0 UV-I -3,6 C 0,1 C 4,5 km/h (1 Bft)
18.01.2012 20:45 3,1 C 6,7 C 2,8 C 2,4 C 1,1 C 0,0 C 62 % 66 % 0 % 1025,2 hPa 0,0 l/m 5,6 km/h (1 Bft) W-SW 247 0 min 0,0 UV-I -3,5 C -0,6 C 6,4 km/h (2 Bft)
18.01.2012 20:50 3,1 C 6,7 C 2,8 C 2,4 C 1,0 C 0,0 C 63 % 66 % 0 % 1025,2 hPa 0,0 l/m 5,6 km/h (1 Bft) W-SW 247 0 min 0,0 UV-I -3,2 C -0,7 C 15,1 km/h (3 Bft)
18.01.2012 20:55 2,9 C 6,8 C 2,8 C 2,3 C 1,1 C 0,0 C 63 % 66 % 0 % 1025,2 hPa 0,0 l/m 5,3 km/h (1 Bft) N-NW 337 0 min 0,0 UV-I -3,4 C -0,5 C 9,7 km/h (2 Bft)
18.01.2012 21:00 3,0 C 6,8 C 2,8 C 2,3 C 0,9 C 0,0 C 63 % 67 % 0 % 1025,2 hPa 0,0 l/m 5,8 km/h (2 Bft) S 180 0 min 0,0 UV-I -3,3 C -0,9 C 7,4 km/h (2 Bft)
18.01.2012 21:10 2,9 C 6,8 C 2,7 C 2,2 C 0,7 C 0,0 C 63 % 68 % 0 % 1025,2 hPa 0,0 l/m 6,8 km/h (2 Bft) N 0 0 min 0,0 UV-I -3,4 C -1,5 C 11,3 km/h (2 Bft)
18.01.2012 21:20 2,8 C 6,8 C 2,6 C 2,2 C 0,1 C 0,0 C 64 % 68 % 0 % 1025,2 hPa 0,0 l/m 8,9 km/h (2 Bft) SW 225 0 min 0,0 UV-I -3,3 C -2,9 C 14,6 km/h (3 Bft)
18.01.2012 21:25 2,9 C 6,8 C 2,7 C 2,3 C 0,2 C 0,0 C 64 % 68 % 0 % 1025,2 hPa 0,0 l/m 8,4 km/h (2 Bft) W-SW 247 0 min 0,0 UV-I -3,2 C -2,6 C 12,4 km/h (3 Bft)
18.01.2012 21:30 2,9 C 6,8 C 2,7 C 2,1 C 0,4 C 0,0 C 63 % 68 % 0 % 1025,2 hPa 0,0 l/m 7,6 km/h (2 Bft) SO 135 0 min 0,0 UV-I -3,4 C -2,1 C 5,0 km/h (1 Bft)
18.01.2012 21:35 2,9 C 6,8 C 2,7 C 2,2 C 0,7 C 0,0 C 64 % 68 % 0 % 1025,2 hPa 0,0 l/m 7,2 km/h (2 Bft) W 270 0 min 0,0 UV-I -3,2 C -1,7 C 13,0 km/h (3 Bft)
18.01.2012 21:40 2,9 C 6,8 C 2,7 C 2,2 C 0,7 C 0,0 C 64 % 68 % 0 % 1025,2 hPa 0,0 l/m 7,1 km/h (2 Bft) SW 225 0 min 0,0 UV-I -3,2 C -1,6 C 9,2 km/h (2 Bft)
18.01.2012 21:45 2,9 C 6,8 C 2,7 C 2,4 C 0,4 C 0,0 C 64 % 68 % 0 % 1025,2 hPa 0,0 l/m 8,5 km/h (2 Bft) NW 315 0 min 0,0 UV-I -3,2 C -2,4 C 6,6 km/h (2 Bft)
18.01.2012 21:50 3,0 C 6,8 C 2,7 C 2,1 C 0,4 C 0,0 C 64 % 68 % 0 % 1025,2 hPa 0,0 l/m 8,2 km/h (2 Bft) S-SO 157 0 min 0,0 UV-I -3,1 C -2,3 C 4,3 km/h (1 Bft)
18.01.2012 21:55 3,0 C 6,8 C 2,8 C 2,2 C 0,7 C 0,0 C 64 % 68 % 0 % 1025,2 hPa 0,0 l/m 7,4 km/h (2 Bft) N-NW 337 0 min 0,0 UV-I -3,1 C -1,7 C 10,3 km/h (2 Bft)
18.01.2012 22:00 3,1 C 6,8 C 2,9 C 2,5 C 0,6 C 0,0 C 64 % 68 % 0 % 1025,2 hPa 0,0 l/m 7,7 km/h (2 Bft) W 270 0 min 0,0 UV-I -3,0 C -1,9 C 8,9 km/h (2 Bft)
18.01.2012 22:10 2,9 C 6,8 C 2,8 C 2,4 C 0,5 C 0,0 C 65 % 69 % 0 % 1025,2 hPa 0,0 l/m 8,0 km/h (2 Bft) N 0 0 min 0,0 UV-I -3,0 C -2,2 C 8,4 km/h (2 Bft)
18.01.2012 22:20 2,9 C 6,8 C 2,8 C 2,3 C 0,2 C 0,0 C 66 % 70 % 0 % 1023,8 hPa 0,0 l/m 10,0 km/h (2 Bft) W-SW 247 0 min 0,0 UV-I -2,8 C -3,1 C 11,1 km/h (2 Bft)
18.01.2012 22:25 3,0 C 6,8 C 2,8 C 2,1 C 0,2 C 0,0 C 66 % 70 % 0 % 1023,8 hPa 0,0 l/m 10,5 km/h (2 Bft) W-NW 292 0 min 0,0 UV-I -2,7 C -3,2 C 10,3 km/h (2 Bft)
18.01.2012 22:30 3,1 C 6,8 C 2,8 C 2,5 C 0,6 C 0,0 C 67 % 71 % 0 % 1023,8 hPa 0,0 l/m 9,5 km/h (2 Bft) SW 225 0 min 0,0 UV-I -2,4 C -2,5 C 9,3 km/h (2 Bft)
18.01.2012 22:35 3,1 C 6,8 C 2,8 C 2,4 C 1,0 C 0,0 C 67 % 71 % 0 % 1023,8 hPa 0,0 l/m 7,6 km/h (2 Bft) NW 315 0 min 0,0 UV-I -2,4 C -1,4 C 4,7 km/h (1 Bft)
18.01.2012 22:40 3,1 C 6,8 C 2,8 C 2,6 C 1,5 C 0,0 C 68 % 71 % 0 % 1024,1 hPa 0,0 l/m 6,1 km/h (2 Bft) W 270 0 min 0,0 UV-I -2,2 C -0,3 C 4,5 km/h (1 Bft)
18.01.2012 22:45 3,1 C 6,8 C 2,8 C 2,5 C 1,4 C 0,0 C 68 % 72 % 0 % 1024,1 hPa 0,0 l/m 6,8 km/h (2 Bft) W-NW 292 0 min 0,0 UV-I -2,2 C -0,7 C 5,1 km/h (1 Bft)
18.01.2012 22:50 3,1 C 6,9 C 2,7 C 2,5 C 1,3 C 0,0 C 69 % 74 % 0 % 1024,1 hPa 0,0 l/m 6,8 km/h (2 Bft) S-SW 202 0 min 0,0 UV-I -2,0 C -0,8 C 3,2 km/h (1 Bft)
18.01.2012 22:55 2,9 C 7,1 C 2,3 C 2,2 C 0,8 C 0,0 C 72 % 78 % 0 % 1024,1 hPa 0,7 l/m 6,1 km/h (2 Bft) W-SW 247 0 min 0,0 UV-I -1,6 C -1,1 C 7,7 km/h (2 Bft)
18.01.2012 23:00 2,7 C 7,2 C 2,0 C 2,1 C -0,4 C 0,0 C 74 % 82 % 0 % 1023,8 hPa 0,0 l/m 7,7 km/h (2 Bft) S-SW 202 0 min 0,0 UV-I -1,5 C -3,1 C 9,3 km/h (2 Bft)
18.01.2012 23:10 2,4 C 7,2 C 1,5 C 1,5 C -1,8 C 0,0 C 77 % 87 % 0 % 1023,8 hPa 0,0 l/m 10,1 km/h (2 Bft) N 0 0 min 0,0 UV-I -1,2 C -5,5 C 10,0 km/h (2 Bft)
18.01.2012 23:20 2,1 C 7,2 C 1,3 C 1,1 C -1,6 C 0,0 C 79 % 89 % 0 % 1024,1 hPa 0,7 l/m 7,9 km/h (2 Bft) SW 225 0 min 0,0 UV-I -1,2 C -4,6 C 8,7 km/h (2 Bft)
18.01.2012 23:25 2,0 C 7,2 C 1,3 C 0,9 C -1,3 C 0,0 C 80 % 90 % 0 % 1024,1 hPa 0,0 l/m 6,8 km/h (2 Bft) S 180 0 min 0,0 UV-I -1,1 C -3,8 C 5,1 km/h (1 Bft)
18.01.2012 23:30 1,9 C 7,2 C 1,2 C 0,8 C -1,3 C 0,0 C 81 % 90 % 0 % 1024,1 hPa 0,0 l/m 6,8 km/h (2 Bft) SW 225 0 min 0,0 UV-I -1,0 C -3,8 C 11,7 km/h (2 Bft)
18.01.2012 23:35 1,9 C 7,2 C 1,1 C 0,8 C -1,3 C 0,0 C 82 % 90 % 0 % 1024,1 hPa 0,0 l/m 6,8 km/h (2 Bft) W-SW 247 0 min 0,0 UV-I -0,8 C -3,8 C 9,8 km/h (2 Bft)
18.01.2012 23:40 1,9 C 7,2 C 1,0 C 0,7 C -1,7 C 0,0 C 82 % 90 % 0 % 1023,6 hPa 0,0 l/m 7,6 km/h (2 Bft) SW 225 0 min 0,0 UV-I -0,8 C -4,6 C 8,0 km/h (2 Bft)
18.01.2012 23:45 1,7 C 7,2 C 1,1 C 0,6 C -1,6 C 0,0 C 83 % 91 % 0 % 1023,6 hPa 0,0 l/m 7,1 km/h (2 Bft) W 270 0 min 0,0 UV-I -0,9 C -4,3 C 6,6 km/h (2 Bft)
18.01.2012 23:50 1,7 C 7,2 C 1,0 C 0,7 C -1,4 C 0,0 C 83 % 91 % 0 % 1023,6 hPa 0,0 l/m 6,8 km/h (2 Bft) O-NO 67 0 min 0,0 UV-I -0,9 C -4,0 C 5,1 km/h (1 Bft)
18.01.2012 23:55 1,7 C 7,2 C 0,9 C 0,5 C -1,8 C 0,0 C 84 % 91 % 0 % 1023,6 hPa 0,7 l/m 7,6 km/h (2 Bft) W-SW 247 0 min 0,0 UV-I -0,7 C -4,7 C 7,4 km/h (2 Bft)
_ Min-Zeit 04:30 12:30 04:10 04:25 04:25 00:00 15:10 17:20 00:00 23:40 - 00:00 - - - 00:00 17:35 23:10 00:00
Minimum _ -3,6 C 6,5 C -3,2 C -4,1 C -5,2 C 0,0 C 53 % 56 % 0 % 1023,6 hPa - 0,0 km/h (0 Bft) - - - 0,0 UV-I -5,5 C -5,5 C 0,0 km/h (0 Bft)
_ Max-Zeit 14:50 00:00 14:40 13:55 13:55 11:50 04:10 00:30 11:50 00:00 22:55 22:25 - - 11:45 00:00 23:55 13:55 19:20
Maximum _ 5,2 C 7,5 C 5,5 C 8,1 C 8,1 C 3,8 C 88 % 92 % 100 % 1031,4 hPa 0,7 l/m 10,5 km/h
W-NW (2 Bft)
- - 5 min 0,0 UV-I -0,7 C 8,1 C 26,6 km/h
W-SW (4 Bft)
Durchschnitt _ 0,8 C 6,9 C 0,6 C 0,7 C -0,3 C 0,4 C 72 % 76 % 10 % 1028,5 hPa #2,1 l/m 3,2 km/h (1 Bft) O-SO - #25 min. 0,0 UV-I -4,0 C -0,8 C 4,8 km/h (1 Bft)
2012 www.wetterstation-wechselburg.de